TIME,DELAY(SENSOR),PRES,T(CTD),SAL,OXYGEN,RAWTEMP,T(OPTODE),TCPHASE,TURBIDITY,TURBIDITY_GAIN,FLUOR,BETA,CDOM,ED411.5,ED443.8,ED489.6,PAR,COMP,TILT,TILTY(TILT),CHECK
1341387716,6467,260.3099975585937500,4.9400000572204590,34.9805984497070300,344.1615905761719000,760.6397705078125000,4.9138832092285160,34.2859382629394500,16,3,50,114,64,2147246330,2147561307,2147569513,2147359770,1304,0,-12,11233
1341387776,6465,256.6600036621094000,4.9556999206542970,34.9826011657714840,344.4883117675781000,760.2404174804688000,4.9278559684753420,34.2666282653808600,16,3,50,108,64,2147244776,2147562020,2147568804,2147359843,1012,0,-12,64282
1341387836,6467,252.9400024414062500,4.9665999412536620,34.9822998046875000,344.6301879882812500,759.9827270507812000,4.9368739128112790,34.2568588256835940,21,3,49,110,64,2147243414,2147558893,2147568630,2147359615,538,0,-12,5255
1341387898,6465,249.0899963378906200,4.9721999168396000,34.9818992614746100,344.1445007324219000,759.7175292968750000,4.9461541175842285,34.2681694030761700,16,3,50,116,64,2147245275,2147558943,2147568649,2147360237,34,0,-12,52501
1341387958,6467,245.3899993896484400,4.9791002273559570,34.9832992553710940,344.1000976562500000,759.5101928710938000,4.9534049034118650,34.2658500671386700,16,3,50,112,64,2147240100,2147559378,2147569531,2147360236,3139,0,-11,41719
1341388020,6465,241.6000061035156200,4.9921998977661130,34.9841003417968750,344.3674926757812500,759.2067871093750000,4.9640197753906250,34.2505416870117200,16,3,49,112,64,2147244667,2147557156,2147570120,2147360324,2600,0,-12,51733
1341388080,6468,238.0000000000000000,5.0027999877929690,34.9845008850097660,344.2361145019531000,758.7933959960938000,4.9784770011901855,34.2466812133789060,16,3,48,111,63,2147245498,2147558893,2147571561,2147362578,2212,0,-12,2524
1341388140,6468,234.4299926757812500,5.0151000022888180,34.9852981567382800,344.4476013183594000,758.5471191406250000,4.9870910644531250,34.2347602844238300,16,3,50,112,64,2147244690,2147556502,2147568685,2147363386,1904,0,-12,45376
1341388200,6467,230.9299926757812500,5.0274000167846680,34.9872016906738300,344.3204956054687500,758.1765747070312000,5.0000438690185550,34.2317199707031250,16,3,50,113,64,2147245800,2147559414,2147566897,2147361083,1469,0,-12,12259
1341388260,6468,227.4700012207031200,5.0341000556945800,34.9869003295898440,344.4146118164062500,757.9887084960938000,5.0066127777099610,34.2247085571289060,16,3,50,114,65,2147247624,2147558787,2147569768,2147361503,1094,0,-12,38227
1341388324,6467,223.8099975585937500,5.0419998168945310,34.9878005981445300,344.2522888183594000,757.7252807617188000,5.0158181190490720,34.2252502441406250,16,3,50,114,64,2147244923,2147559611,2147565389,2147361178,730,0,-12,50308
1341388384,6469,220.4199981689453000,5.0517001152038570,34.9877014160156250,344.1328125000000000,757.4998168945312000,5.0237030982971190,34.2246894836425800,16,3,50,112,64,2147245841,2147557261,2147567647,2147361860,252,0,-12,58983
1341388448,6467,216.8999938964843800,5.0707998275756840,34.9888000488281250,343.9989929199219000,756.9552001953125000,5.0427341461181640,34.2187881469726560,16,3,50,110,64,2147244173,2147559670,2147570802,2147360136,3376,0,-12,27046
1341388508,6469,213.6300048828125000,5.0857000350952150,34.9894981384277340,343.4963073730469000,756.5546875000000000,5.0567259788513180,34.2279090881347660,16,3,49,114,64,2147244858,2147559263,2147570216,2147360694,3049,0,-12,26460
1341388572,6466,210.1999969482422000,5.1020998954772950,34.9907989501953100,343.3788146972656000,756.0322875976562000,5.0749778747558590,34.2218894958496100,16,3,49,114,64,2147242399,2147559652,2147569384,2147361668,2624,0,-12,39602
1341388634,6467,206.9400024414062500,5.1100997924804690,34.9900016784668000,343.0674133300781000,755.8242797851562000,5.0822448730468750,34.2284507751464840,16,3,50,117,64,2147246207,2147560552,2147569631,2147361110,2218,0,-12,44754
1341388698,6465,203.6199951171875000,5.1300001144409180,34.9930000305175800,343.1271972656250000,755.2357788085938000,5.1027970314025880,34.2149085998535160,16,3,50,124,64,2147242980,2147558504,2147569142,2147361357,1945,0,-12,59728
1341388758,6468,200.5899963378906200,5.1333999633789060,34.9922981262207000,343.2926940917969000,755.1248168945312000,5.1066741943359375,34.2068099975585940,37,3,50,113,64,2147242481,2147557242,2147569539,2147361512,1667,0,-12,4967
1341388822,6467,197.4100036621093800,5.1373000144958500,34.9930992126464840,343.1315917968750000,755.0147705078125000,5.1105117797851560,34.2101593017578100,16,3,50,116,65,2147243099,2147559538,2147569846,2147362308,1323,0,-12,15594
1341388882,6468,194.4199981689453000,5.1504001617431640,34.9936981201171900,342.9468994140625000,754.7205200195312000,5.1207871437072750,34.2106285095214840,16,3,50,113,64,2147243624,2147560451,2147570281,2147360918,999,0,-12,44874
1341388946,6467,191.3000030517578000,5.1531000137329100,34.9939994812011700,343.1582031250000000,754.5994873046875000,5.1250100135803220,34.2012710571289060,16,3,50,115,64,2147243497,2147559177,2147569307,2147360282,493,0,-12,58612
1341389006,6463,188.3899993896484400,5.1606001853942870,34.9935989379882800,343.0462951660156000,754.3682861328125000,5.1330800056457520,34.2006797790527340,16,3,50,117,64,2147243716,2147558143,2147571666,2147361636,15,0,-12,16645
1341389070,6465,185.3699951171875000,5.1721000671386720,34.9942016601562500,343.0664978027344000,754.0244140625000000,5.1450839042663570,34.1930885314941400,16,3,50,115,64,2147247995,2147557910,2147571318,2147362129,3152,0,-12,22394
1341389130,6468,182.5800018310547000,5.1915001869201660,34.9962005615234400,342.9696044921875000,753.5043945312500000,5.1632308959960940,34.1862411499023440,16,3,50,117,64,2147248132,2147558861,2147570248,2147361586,2903,0,-12,48469
1341389194,6468,179.6499938964843800,5.2192001342773440,34.9980010986328100,343.0313110351562500,752.7791748046875000,5.1885318756103520,34.1698989868164060,16,3,50,115,65,2147246070,2147561014,2147573539,2147362166,2318,0,-12,52329
1341389256,6468,176.8000030517578000,5.2284002304077150,34.9999008178710940,343.0042114257812500,752.4016723632812000,5.2016959190368650,34.1631889343261700,16,3,50,117,64,2147244260,2147560868,2147572992,2147362208,1984,0,-12,38643
1341389320,6468,173.9199981689453000,5.2409000396728520,34.9994010925293000,343.2150878906250000,752.0975952148438000,5.2123031616210940,34.1501998901367200,27,3,50,118,64,2147244529,2147557997,2147572973,2147363666,1654,0,-12,38861
1341389380,6468,171.2799987792968800,5.2423000335693360,34.9998016357421900,343.0972900390625000,752.0319824218750000,5.2145900726318360,34.1529502868652340,16,3,50,116,63,2147244694,2147558605,2147576132,2147362692,1307,0,-12,30531
1341389444,6468,168.5000000000000000,5.2462000846862790,34.9986991882324200,342.9155883789062500,751.9954223632812000,5.2158641815185550,34.1582603454589840,10,3,50,122,64,2147243857,2147557434,2147577600,2147360634,1072,0,-12,20726
1341389504,6468,165.9299926757812500,5.2444000244140625,34.9967994689941400,342.8595886230469000,751.9581298828125000,5.2171669006347660,34.1594810485839840,16,3,50,116,65,2147242655,2147559194,2147577736,2147358865,666,0,-12,32429
1341389568,6466,163.2299957275390600,5.2238001823425290,34.9931983947753900,343.0726928710937500,752.4589233398438000,5.1997032165527340,34.1621894836425800,16,3,50,120,64,2147243345,2147559638,2147579519,2147359670,275,0,-12,7033
1341389628,6465,160.7200012207031200,5.2602000236511230,34.9963989257812500,343.0056152343750000,751.6132812500000000,5.2291870117187500,34.1480407714843750,16,3,50,116,64,2147241855,2147556735,2147576315,2147360936,3351,0,-12,34278
1341389692,6466,158.0800018310547000,5.2649002075195310,34.9977989196777340,343.0723876953125000,751.4146728515625000,5.2361130714416500,34.1417312622070300,16,3,50,120,64,2147244868,2147558646,2147579117,2147359071,2938,0,-12,27032
1341389752,6469,155.6300048828125000,5.2906999588012695,34.9986991882324200,342.8228149414062500,750.6447143554688000,5.2629489898681640,34.1352806091308600,16,3,50,117,64,2147244749,2147560004,2147581476,2147362029,2533,0,-12,21875
1341389816,6467,153.1000061035156200,5.3207998275756840,35.0024986267089840,342.5137939453125000,749.8314208984375000,5.2912898063659670,34.1299209594726560,16,3,50,120,63,2147243007,2147557462,2147583601,2147362897,2404,0,-12,26236
1341389878,6469,150.6799926757812500,5.3267998695373535,35.0017013549804700,341.6438903808594000,749.6384887695312000,5.2980079650878910,34.1562995910644500,16,3,50,120,64,2147237380,2147558289,2147582481,2147362010,2117,0,-12,43258
1341389969,6468,146.3500061035156200,5.3379998207092285,35.0017013549804700,341.1438903808594000,749.2575073242188000,5.3112788200378420,34.1659317016601560,16,3,50,121,63,2147243820,2147559762,2147585261,2147363684,1573,0,-12,24839
1341390029,6467,142.6499938964843800,5.3674998283386230,35.0029983520507800,341.6763000488281000,748.4879150390625000,5.3380808830261230,34.1326293945312500,16,3,50,125,64,2147243122,2147561307,2147588745,2147362747,1280,0,-12,348
1341390093,6466,138.6900024414062500,5.3836002349853520,35.0040016174316400,341.7626037597656000,748.0482788085938000,5.3533840179443360,34.1208915710449200,19,3,50,134,65,2147243382,2147560868,2147592822,2147363483,948,0,-12,60175
1341390153,6468,135.0200042724609400,5.4096999168396000,35.0050010681152340,341.6276855468750000,747.1558837890625000,5.3844428062438965,34.1083488464355500,16,3,50,125,65,2147242820,2147560539,2147596456,2147365974,427,0,-12,56042
1341390242,6467,130.3999938964843800,5.4225001335144040,35.0038986206054700,341.6283874511719000,746.7650146484375000,5.3980460166931150,34.1008911132812500,18,3,52,126,66,2147244086,2147564900,2147601233,2147365617,3298,0,-12,26611
1341390302,6469,128.1900024414062500,5.4201998710632320,35.0041999816894500,342.2112121582031000,746.7877807617188000,5.3972530364990230,34.0809898376464840,16,3,51,122,64,2147243304,2147562518,2147606115,2147365576,2854,0,-12,40173
1341390366,6467,125.9300003051757800,5.1655001640319820,34.9631996154785160,346.3211059570312500,753.0526123046875000,5.1789932250976560,34.0623207092285160,16,3,55,127,64,2147243395,2147564273,2147609796,2147365037,2342,0,-12,58809
1341390426,6468,123.8499984741211000,5.1638998985290530,34.9579010009765600,348.1145935058594000,753.6165161132812000,5.1593189239501950,34.0125999450683600,16,3,56,121,65,2147244754,2147563936,2147608987,2147364159,2143,0,-12,17380
1341390514,6468,120.3099975585937500,5.2652997970581055,34.9674987792968750,346.7666931152344000,751.5042114257812000,5.2329921722412110,34.0167083740234400,16,3,53,125,64,2147242349,2147563958,2147612781,2147367423,1747,0,-12,45356
1341390576,6467,117.0800018310546900,5.3379001617431640,34.9747009277343750,344.2214965820312500,749.5383300781250000,5.3014979362487790,34.0656394958496100,16,3,52,133,64,2147241571,2147563652,2147616448,2147368511,1537,0,-12,21033
1341390640,6465,113.8300018310546900,5.3839998245239260,34.9799995422363300,342.2860107421875000,747.7305297851562000,5.3644490242004395,34.0968818664550800,12,3,52,133,64,2147243610,2147564543,2147620726,2147367318,1149,0,-12,50631
1341390700,6466,110.8600006103515600,5.4665999412536620,34.9880981445312500,340.3279113769531000,745.7124023437500000,5.4346618652343750,34.1251792907714840,14,3,50,171,66,2147240022,2147565339,2147622267,2147368945,744,0,-12,219
1341390764,6467,107.6500015258789000,5.4829001426696780,34.9906005859375000,339.4396972656250000,745.0662841796875000,5.4571251869201660,34.1436309814453100,16,3,50,136,64,2147241471,2147562733,2147623761,2147369590,272,0,-12,17817
1341390824,6467,104.6100006103515600,5.5173001289367680,34.9943008422851560,338.7174987792969000,744.1156005859375000,5.4901747703552250,34.1499710083007800,16,3,50,138,64,2147241961,2147565183,2147629567,2147367369,3095,0,-12,13109
1341390888,6468,101.3899993896484400,5.5601000785827640,34.9947013854980500,337.6173095703125000,743.1041259765625000,5.5253200531005860,34.1689109802246100,17,3,51,142,65,2147244529,2147567793,2147633192,2147366985,2630,0,-12,7377
1341390948,6468,98.4100036621093800,5.6465001106262210,34.9982986450195300,336.8934936523437500,740.8193969726562000,5.6046519279479980,34.1501502990722660,14,3,52,147,64,2147241631,2147569356,2147646829,2147372169,2139,0,-11,45553
1341391012,6468,95.1500015258789000,5.7067999839782715,35.0065002441406250,335.6232910156250000,738.8132934570312000,5.6742482185363770,34.1559791564941400,16,3,52,147,64,2147247532,2147570203,2147661151,2147376708,1661,0,-12,22671
1341391074,6465,91.9499969482421900,5.7741999626159670,35.0130004882812500,334.6500854492187500,737.0145263671875000,5.7365989685058590,34.1557197570800800,13,3,52,144,66,2147247304,2147571592,2147672694,2147380991,1403,0,-12,47688
1341391138,6469,88.7200012207031200,5.8319001197814940,35.0196990966796900,336.2258911132812500,735.0258178710938000,5.8054847717285160,34.0622215270996100,17,3,54,150,64,2147245503,2147577457,2147680849,2147380667,1075,0,-12,18340
1341391200,6467,85.6600036621093800,5.8590998649597170,35.0185012817382800,339.9790039062500000,734.0723266601562000,5.8384881019592285,33.9129905700683600,54,3,55,139,64,2147247007,2147578175,2147692150,2147380749,466,0,-12,2201
1341391264,6468,82.5899963378906200,5.8873000144958500,35.0152015686035160,344.0603942871094000,733.3826293945312000,5.8623538017272950,33.7596588134765600,16,3,56,149,64,2147248251,2147580758,2147699556,2147386202,3370,0,-12,13146
1341391326,6466,79.6699981689453100,5.9335999488830570,35.0107002258300800,345.1877136230469000,732.2263183593750000,5.9023528099060060,33.6990814208984400,23,3,59,149,64,2147245348,2147584150,2147704552,2147384553,3083,0,-12,8886
1341391390,6468,76.6999969482421900,5.9650001525878910,35.0097007751464840,347.1471862792969000,731.1068725585938000,5.9410548210144040,33.6115493774414060,15,3,60,165,64,2147247698,2147584767,2147706915,2147386477,2419,0,-12,29761
1341391452,6467,73.6399993896484400,6.0363998413085940,35.0079002380371100,350.6513061523437500,729.1992797851562000,6.0069661140441895,33.4583015441894500,18,3,64,157,64,2147248639,2147585462,2147718038,2147392416,2020,0,-12,50602
1341391516,6468,70.2799987792968800,6.0700001716613770,35.0056991577148440,353.0920104980469000,728.1364746093750000,6.0436692237854000,33.3572196960449200,15,3,68,164,64,2147249722,2147592447,2147741768,2147395780,1620,0,-10,30581
1341391578,6468,66.7799987792968800,6.1139998435974120,35.0032005310058600,354.7203979492187500,726.9633178710938000,6.0841622352600100,33.2816200256347660,19,3,78,170,64,2147253074,2147597878,2147768886,2147405201,1062,0,-12,24867
1341391642,6467,62.9300003051757800,6.1336998939514160,34.9998016357421900,356.1304016113281000,726.2359008789062000,6.1092591285705570,33.2214202880859400,24,3,84,211,64,2147256927,2147614070,2147811473,2147417828,636,0,-12,55066
1341391704,6467,59.1599998474121100,6.0991001129150390,34.9872016906738300,358.0491027832031000,727.7952270507812000,6.0554499626159670,33.1884498596191400,21,3,94,206,65,2147266568,2147631711,2147871707,2147433023,225,0,-12,57091
1341391791,6467,54.8699989318847660,6.2754001617431640,34.9869995117187500,357.7605895996094000,722.7612304687500000,6.2290420532226560,33.1035499572753900,25,3,102,199,64,2147277188,2147656593,2147950555,2147458125,3188,0,-11,45498
1341391853,6470,53.4199981689453100,6.2874999046325680,34.9819984436035160,358.4352111816406000,722.0809936523438000,6.2524719238281250,33.0690917968750000,38,3,123,212,64,2147283871,2147669037,2147980653,2147468712,3099,0,-10,14839
1341391964,6470,50.8899993896484400,6.4085998535156250,34.9840011596679700,358.6075134277344000,718.7941284179688000,6.3655967712402340,33.0026702880859400,29,3,139,241,64,2147299698,2147699904,2148069188,2147497083,2515,0,-12,60416
1341392026,6471,48.8600006103515600,6.2625999450683590,34.9463005065918000,361.2446899414062500,721.4199218750000000,6.2752380371093750,32.9661903381347660,31,3,183,295,65,2147316004,2147709398,2148112191,2147516200,2534,0,-10,26021
1341392117,6470,45.4399986267089840,6.3611001968383790,34.8956985473632800,369.4461059570312500,719.0646972656250000,6.3562870025634770,32.6628990173339840,35,3,330,337,66,2147368073,2147780790,2148289243,2147581384,2024,0,-12,1763
1341392179,6470,42.2299995422363300,6.6528000831604000,34.9011993408203100,370.3847961425781000,712.1212768554688000,6.5947880744934080,32.5069694519043000,47,3,406,389,64,2147432959,2147871794,2148505718,2147660287,1728,0,-12,49326
1341392243,6469,38.6800003051757800,7.0233001708984375,34.9086990356445300,369.8041076660156000,700.9122924804688000,6.9784221649169920,32.3227310180664060,125,3,517,568,66,2147574541,2148050482,2148906609,2147806403,1434,0,-12,46896
1341392305,6470,35.1100006103515600,7.4467000961303710,34.9206008911132800,371.9855041503906000,689.3712158203125000,7.3716678619384770,32.0509185791015600,79,3,724,598,64,2147870417,2148445567,2149728973,2148106020,1333,0,-12,30920
1341392369,6469,31.3400001525878900,7.5349998474121090,34.9034996032714840,378.8204956054687500,686.0748901367188000,7.4836621284484860,31.7854499816894530,91,3,652,680,64,2148378646,2149060017,2150882266,2148543373,708,0,-12,24616
1341392431,6470,27.8400001525878900,7.6897997856140140,34.9109992980957000,383.7781066894531000,680.4694213867188000,7.6737937927246090,31.5406303405761720,93,3,678,709,65,2149127807,2149908991,2152259391,2149099044,283,0,-12,49668
1341392495,6469,24.2600002288818360,7.8987002372741700,34.9138984680175800,388.9171142578125000,674.4539794921875000,7.8773818016052250,31.2871208190917970,132,3,711,687,64,2150490002,2151360196,2154370692,2149979171,95,0,-10,26669
1341392557,6470,20.9799995422363280,8.0122003555297850,34.8898010253906250,396.0174865722656000,670.9240112304688000,7.9966368675231930,31.0234203338623050,72,3,603,527,62,2152209713,2153131784,2156763122,2151048136,3121,2,-11,9920
1341392621,6469,18.1399993896484380,8.6035003662109380,34.8890991210937500,399.3262023925781000,654.2703247070312000,8.5571842193603520,30.6518402099609380,72,3,592,502,63,2154374650,2155322244,2159634381,2152375450,2586,1,-11,33994
1341392683,6506,16.5499992370605470,9.7530002593994140,34.9572982788085940,396.5816040039062500,621.6638793945312000,9.6451377868652340,30.2001800537109380,83,3,637,614,62,2155884918,2156849087,2161504438,2153249362,3041,1,-12,5934
1341392787,6469,15.2399997711181640,10.9469995498657230,34.9691009521484400,379.1491088867187500,586.7993774414062000,10.7953996658325200,30.1523704528808600,80,3,668,553,62,2158519099,2159606856,2164693503,2154782692,3364,0,-12,18975
1341392890,6469,12.7600002288818360,11.3093996047973630,34.9785003662109400,366.4822082519531000,572.1077880859375000,11.2763500213623050,30.3029193878173830,81,3,580,505,62,2164330349,2165752484,2171692511,2158302550,2483,1,-12,45334
1341392964,6470,9.7399997711181640,11.5715999603271480,34.9902000427246100,357.9891052246094000,563.5496826171875000,11.5555496215820310,30.4323291778564450,76,3,466,539,61,2174659802,2176536511,2183311985,2164708150,2855,1,-9,59130
1341393043,6471,5.2699999809265140,11.5826997756958000,34.9930992126464840,354.4775085449219000,562.7907714843750000,11.5802698135375980,30.5301895141601560,77,3,405,513,60,2203134221,2206061265,2212389147,2185112333,2341,-5,-18,23742
1341393107,6470,0.8000000119209290,0.0000000000000000,0.0000000000000000,353.7442932128906000,562.7136230468750000,11.5827798843383790,30.5520305633544920,79,3,330,511,56,2221154189,2224708237,2229420196,2203784511,2268,27,-8,14620
1341393155,6468,1.0000000000000000,0.0000000000000000,0.0000000000000000,353.4717102050781000,562.6787109375000000,11.5839195251464840,30.5599193572998050,75,3,277,445,61,2237489599,2245052928,2244007235,2225626212,2102,-4,-33,61392
